Simultaneous Nadir Overpasses (SNOs) Predictions

Prediction of SNOs between NPP and TERRA Satellite Orbit:

Table of predicted SNOs for the next 14.0 days since TLE Epoch: 2/10/2024
Index Date (NPP) Time (NPP) Lat,Lon (NPP) SZA (NPP ) Date (TERRA) Time (TERRA) Lat,Lon (TERRA) SZA (TERRA ) Distance(km) Time Diff (sec)
1 02/12/2024 03:17:04 -72.34, -56.58 93.57 02/12/2024 03:18:13 -72.21, -54.93 93.81 57.91 69
2 02/12/2024 04:07:38 71.73, 111.89 85.76 02/12/2024 04:07:42 71.70, 111.87 85.73 3.13 4
3 02/12/2024 04:58:20 -71.63, -80.61 94.37 02/12/2024 04:57:07 -71.62, -80.61 94.37 1.54 73
4 02/14/2024 15:20:13 72.27, -57.23 85.51 02/14/2024 15:21:22 72.16, -55.83 85.32 49.01 69
5 02/14/2024 16:10:47 -71.75, 111.05 95.06 02/14/2024 16:10:53 -71.76, 111.13 95.06 2.75 6
6 02/14/2024 17:01:29 71.55, -81.27 84.71 02/14/2024 17:00:16 71.57, -81.51 84.76 8.82 73
7 02/17/2024 03:23:23 -72.35, -58.18 95.26 02/17/2024 03:24:32 -72.24, -56.52 95.47 57.32 69
8 02/17/2024 04:13:57 71.74, 110.29 84.07 02/17/2024 04:14:01 71.72, 110.26 84.05 2.10 4
9 02/17/2024 05:04:39 -71.64, -82.21 96.06 02/17/2024 05:03:26 -71.65, -82.21 96.04 0.88 73
10 02/19/2024 15:26:31 72.24, -58.76 83.75 02/19/2024 15:27:41 72.11, -57.55 83.54 43.67 70
11 02/19/2024 16:17:06 -71.78, 109.43 96.77 02/19/2024 16:17:11 -71.77, 109.51 96.79 3.19 5
12 02/19/2024 17:07:47 71.53, -82.80 82.95 02/19/2024 17:06:34 71.57, -83.15 83.02 12.93 73
13 02/22/2024 03:29:39 -72.29, -59.64 97.11 02/22/2024 03:30:49 -72.18, -58.27 97.31 48.26 70
14 02/22/2024 04:20:14 71.74, 108.72 82.28 02/22/2024 04:20:16 71.76, 108.70 82.31 3.30 2



Historial Predications of SNOs between NPP and TERRA
